LA4GY-1 Weather Reports


Display with metric or nautical units.
time (UTC)temp
F
wind
direction
speed
MPH
gust
MPH
rain 1hr
in
rain 24hr
in
rain mn
in
humidity
%
barometer
mb
20260507115006 42 159 0.0 0.0 0.00 0.09 0.02 87 1016.6
20260507114005 42 168 0.0 0.0 0.00 0.09 0.02 87 1016.6
20260507113006 42 106 0.0 0.0 0.00 0.09 0.02 87 1016.6
20260507112006 41 121 0.0 0.0 0.02 0.09 0.02 89 1016.4
20260507111006 41 184 0.0 0.0 0.02 0.10 0.02 89 1016.3
20260507110006 41 250 0.0 0.0 0.02 0.10 0.02 89 1016.3
20260507105005 41 224 0.0 0.0 0.02 0.10 0.02 88 1016.3
20260507103005 42 261 0.0 0.0 0.02 0.11 0.02 83 1016.2
20260507102007 44 325 0.0 0.0 0.00 0.09 0.00 80 1015.9
20260507101006 44 221 0.0 0.0 0.00 0.09 0.00 81 1015.5
20260507100005 44 144 0.0 0.0 0.00 0.09 0.00 77 1015.4
20260507095005 43 145 0.0 0.0 0.00 0.10 0.00 78 1015.3
20260507094006 43 145 0.0 0.0 0.00 0.11 0.00 78 1015.3
20260507092006 43 152 0.0 0.0 0.00 0.12 0.00 78 1015.3
20260507091005 42 155 0.0 0.0 0.00 0.12 0.00 80 1015.3
20260507090006 42 119 0.0 0.0 0.00 0.12 0.00 79 1015.1
20260507085005 42 119 0.0 0.0 0.00 0.12 0.00 79 1015.1
20260507084006 42 149 0.0 0.0 0.00 0.12 0.00 80 1015.0
20260507083005 42 150 0.0 0.0 0.00 0.12 0.00 81 1015.0
20260507081006 42 151 0.0 0.0 0.00 0.12 0.00 84 1015.0
20260507080005 41 144 0.0 0.0 0.00 0.12 0.00 85 1014.9
20260507074006 40 119 0.0 0.0 0.00 0.12 0.00 87 1014.8
20260507073005 40 110 0.0 0.0 0.00 0.12 0.00 88 1014.7
20260507072006 40 115 0.0 0.0 0.00 0.12 0.00 89 1014.7
20260507071005 40 119 0.0 0.0 0.00 0.12 0.00 90 1014.7
20260507070009 40 162 0.0 0.0 0.00 0.12 0.00 89 1014.6
20260507065006 40 163 0.0 0.0 0.00 0.12 0.00 90 1014.5
20260507064006 40 163 0.0 0.0 0.00 0.12 0.00 89 1014.4
20260507063005 40 163 0.0 0.0 0.00 0.12 0.00 89 1014.4
20260507061005 39 163 0.0 0.0 0.00 0.12 0.00 90 1014.2
20260507060005 39 163 0.0 0.0 0.00 0.12 0.00 90 1014.1
20260507055006 39 163 0.0 0.0 0.00 0.12 0.00 90 1014.1
20260507054006 39 163 0.0 0.0 0.00 0.12 0.00 90 1014.0
20260507053005 39 163 0.0 0.0 0.00 0.12 0.00 90 1013.9
20260507052005 39 163 0.0 0.0 0.00 0.12 0.00 91 1013.9
20260507051005 39 163 0.0 0.0 0.00 0.12 0.00 91 1013.8
20260507050005 39 163 0.0 0.0 0.00 0.12 0.00 91 1013.8
20260507045005 39 163 0.0 0.0 0.00 0.12 0.00 91 1013.8
20260507044005 39 163 0.0 0.0 0.00 0.12 0.00 91 1013.7
20260507043005 38 163 0.0 0.0 0.00 0.12 0.00 91 1013.7
20260507042005 39 163 0.0 0.0 0.00 0.12 0.00 91 1013.7
20260507041005 38 163 0.0 0.0 0.00 0.12 0.00 92 1013.6
20260507040005 38 163 0.0 0.0 0.00 0.12 0.00 92 1013.6
20260507035005 37 163 0.0 0.0 0.00 0.12 0.00 92 1013.6
20260507034005 37 163 0.0 0.0 0.00 0.12 0.00 92 1013.6
20260507033005 36 163 0.0 0.0 0.00 0.12 0.00 92 1013.5
20260507032005 36 163 0.0 0.0 0.00 0.12 0.00 92 1013.4
20260507031006 36 163 0.0 0.0 0.00 0.12 0.00 91 1013.4
20260507030005 36 163 0.0 0.0 0.00 0.12 0.00 92 1013.4
20260507025005 36 163 0.0 0.0 0.00 0.12 0.00 92 1013.4
20260507023005 36 163 0.0 0.0 0.00 0.12 0.00 92 1013.2
20260507022005 36 163 0.0 0.0 0.00 0.12 0.00 92 1013.3
20260507021005 35 163 0.0 0.0 0.00 0.12 0.00 92 1013.2
20260507020005 36 163 0.0 0.0 0.00 0.12 0.00 91 1013.2
20260507015005 36 163 0.0 0.0 0.00 0.12 0.00 91 1013.0
20260507014005 36 163 0.0 0.0 0.00 0.13 0.00 91 1013.0
20260507012005 37 163 0.0 0.0 0.00 0.13 0.00 91 1012.9
20260507011005 37 163 0.0 0.0 0.00 0.13 0.00 92 1012.9
20260507010005 37 163 0.0 0.0 0.00 0.13 0.00 91 1012.9
20260507005005 37 163 0.0 0.0 0.00 0.13 0.00 91 1012.9
20260507004005 37 163 0.0 0.0 0.00 0.13 0.00 91 1012.8
20260507002005 37 163 0.0 0.0 0.00 0.13 0.00 92 1012.7
20260507001005 37 163 0.0 0.0 0.00 0.13 0.00 92 1012.7
20260507000005 37 163 0.0 0.0 0.00 0.13 0.00 92 1012.6
20260506235005 37 163 0.0 0.0 0.00 0.13 0.00 92 1012.6
20260506234005 37 163 0.0 0.0 0.00 0.13 0.00 91 1012.5
20260506233004 37 163 0.0 0.0 0.00 0.13 0.00 91 1012.4
20260506231005 37 163 0.0 0.0 0.00 0.13 0.00 91 1012.3
20260506230005 37 163 0.0 0.0 0.00 0.13 0.00 91 1012.3
20260506225005 37 163 0.0 0.0 0.00 0.13 0.00 91 1012.3
20260506224005 37 163 0.0 0.0 0.00 0.13 0.00 91 1012.3
20260506223005 37 163 0.0 0.0 0.00 0.13 0.00 91 1012.3
20260506222005 37 163 0.0 0.0 0.00 0.14 0.00 91 1012.3
20260506221005 37 163 0.0 0.0 0.00 0.16 0.00 91 1012.3
20260506220005 37 163 0.0 0.0 0.00 0.17 0.00 91 1012.3
20260506215006 37 163 0.0 0.0 0.00 0.17 0.17 91 1012.2
20260506213005 37 163 0.0 0.0 0.00 0.22 0.17 90 1012.1
20260506212005 37 163 0.0 0.0 0.00 0.26 0.17 89 1012.0
20260506211005 38 163 0.0 0.0 0.00 0.28 0.17 89 1012.0
20260506210005 38 163 0.0 0.0 0.00 0.28 0.17 90 1012.0
20260506205005 38 163 0.0 0.0 0.00 0.29 0.17 91 1012.0
20260506204005 38 163 0.0 0.0 0.01 0.30 0.17 91 1011.9
20260506202004 38 163 0.0 0.0 0.01 0.31 0.17 90 1011.7
20260506201005 38 163 0.0 0.0 0.01 0.31 0.17 90 1011.7
20260506200005 38 163 0.0 0.0 0.01 0.31 0.17 90 1011.8
20260506195004 38 163 0.0 0.0 0.01 0.31 0.17 91 1011.8
20260506194005 38 163 0.0 0.0 0.00 0.30 0.16 91 1011.6
20260506193004 38 163 0.0 0.0 0.00 0.30 0.16 91 1011.6
20260506192005 38 163 0.0 0.0 0.00 0.30 0.16 91 1011.5
20260506191005 38 163 0.0 0.0 0.00 0.30 0.16 91 1011.5
20260506190005 38 163 0.0 0.0 0.00 0.30 0.16 91 1011.4
20260506185004 38 163 0.0 0.0 0.00 0.30 0.16 91 1011.5
20260506184004 38 163 0.0 0.0 0.00 0.30 0.16 91 1011.4
20260506183005 38 163 0.0 0.0 0.00 0.31 0.16 92 1011.3
20260506182005 38 163 0.0 0.0 0.00 0.31 0.16 92 1011.3
20260506181006 37 163 0.0 0.0 0.01 0.31 0.16 92 1011.3
20260506180006 37 163 0.0 0.0 0.01 0.31 0.16 92 1011.3
20260506174006 37 163 0.0 0.0 0.01 0.31 0.16 91 1011.2
20260506172006 37 208 0.0 0.0 0.01 0.31 0.16 91 1011.0
20260506171006 38 220 0.0 0.0 0.02 0.31 0.15 91 1011.0
20260506170005 38 210 0.0 0.0 0.03 0.31 0.15 91 1011.0
20260506165006 38 213 0.0 0.0 0.03 0.32 0.15 91 1011.0
20260506164005 38 201 0.0 0.0 0.03 0.32 0.15 90 1011.0
20260506163006 39 244 0.0 0.0 0.03 0.32 0.15 89 1010.8
20260506162006 39 244 0.0 0.0 0.03 0.32 0.15 88 1010.6
20260506161005 39 242 0.0 0.0 0.01 0.30 0.13 88 1010.6
20260506160006 39 109 0.0 0.0 0.00 0.29 0.12 87 1010.6
20260506155006 40 109 0.0 0.0 0.00 0.30 0.12 87 1010.5
20260506153006 39 240 0.0 0.0 0.00 0.30 0.12 87 1010.5
20260506152005 40 237 0.0 0.0 0.00 0.30 0.12 87 1010.4
20260506151005 40 248 0.0 0.0 0.00 0.31 0.12 86 1010.3
20260506145006 41 269 0.0 0.0 0.00 0.33 0.12 85 1010.1
20260506144006 42 229 0.0 0.0 0.00 0.33 0.12 86 1010.2
20260506143005 42 229 0.0 0.0 0.00 0.33 0.12 86 1010.1
20260506140006 42 173 0.0 0.0 0.01 0.33 0.12 89 1010.0
20260506135006 42 185 0.0 0.0 0.01 0.33 0.12 90 1009.9
20260506134006 41 202 0.0 0.0 0.02 0.34 0.12 91 1010.0
20260506133005 40 234 0.0 0.0 0.02 0.36 0.12 91 1009.8
20260506132005 40 237 0.0 0.0 0.02 0.36 0.12 91 1009.9
20260506131006 39 237 0.0 0.0 0.02 0.36 0.12 91 1009.8
20260506130006 40 241 0.0 0.0 0.02 0.35 0.11 90 1009.7
20260506125006 40 294 0.0 0.0 0.02 0.35 0.11 89 1009.7
20260506124005 41 193 0.0 0.0 0.01 0.35 0.10 90 1009.7
20260506123005 41 191 0.0 0.0 0.00 0.35 0.09 91 1009.6
20260506122005 40 200 0.0 0.0 0.00 0.35 0.09 90 1009.6
20260506121005 41 207 0.0 0.0 0.01 0.35 0.09 90 1009.6
20260506120005 41 142 0.0 0.0 0.01 0.35 0.09 90 1009.6